Year,Month,Day,Hour,Minute,Value (Times are PST for temperature in C)
2010,03,23,00,00,7.70
2010,03,23,00,01,7.70
2010,03,23,00,02,7.70
2010,03,23,00,03,7.70
2010,03,23,00,04,7.70
2010,03,23,00,05,7.70
2010,03,23,00,06,7.60
2010,03,23,00,07,7.70
2010,03,23,00,08,7.70
2010,03,23,00,09,7.70
2010,03,23,00,10,7.70
2010,03,23,00,11,7.70
2010,03,23,00,12,7.70
2010,03,23,00,13,7.70
2010,03,23,00,14,7.60
2010,03,23,00,15,7.60
2010,03,23,00,16,7.60
2010,03,23,00,17,7.60
2010,03,23,00,18,7.60
2010,03,23,00,19,7.60
2010,03,23,00,20,7.60
2010,03,23,00,21,7.60
2010,03,23,00,22,7.50
2010,03,23,00,23,7.50
2010,03,23,00,24,7.40
2010,03,23,00,25,7.40
2010,03,23,00,26,7.40
2010,03,23,00,27,7.40
2010,03,23,00,28,7.30
2010,03,23,00,29,7.30
2010,03,23,00,30,7.30
2010,03,23,00,31,7.30
2010,03,23,00,32,7.30
2010,03,23,00,33,7.30
2010,03,23,00,34,7.30
2010,03,23,00,35,7.30
2010,03,23,00,36,7.30
2010,03,23,00,37,7.30
2010,03,23,00,38,7.30
2010,03,23,00,39,7.30
2010,03,23,00,40,7.20
2010,03,23,00,41,7.20
2010,03,23,00,42,7.20
2010,03,23,00,43,7.20
2010,03,23,00,44,7.10
2010,03,23,00,45,7.10
2010,03,23,00,46,7.10
2010,03,23,00,47,7.00
2010,03,23,00,48,7.00
2010,03,23,00,49,6.90
2010,03,23,00,50,6.90
2010,03,23,00,51,6.90
2010,03,23,00,52,6.90
2010,03,23,00,53,6.80
2010,03,23,00,54,6.80
2010,03,23,00,55,6.80
2010,03,23,00,56,6.80
2010,03,23,00,57,6.80
2010,03,23,00,58,6.80
2010,03,23,00,59,6.80
2010,03,23,01,00,6.70
2010,03,23,01,01,6.70
2010,03,23,01,02,6.70
2010,03,23,01,03,6.70
2010,03,23,01,04,6.70
2010,03,23,01,05,6.70
2010,03,23,01,06,6.70
2010,03,23,01,07,6.70
2010,03,23,01,08,6.70
2010,03,23,01,09,6.70
2010,03,23,01,10,6.70
2010,03,23,01,11,6.80
2010,03,23,01,12,6.80
2010,03,23,01,13,6.80
2010,03,23,01,14,6.80
2010,03,23,01,15,6.80
2010,03,23,01,16,6.80
2010,03,23,01,17,6.80
2010,03,23,01,18,6.80
2010,03,23,01,19,6.80
2010,03,23,01,20,6.80
2010,03,23,01,21,6.80
2010,03,23,01,22,6.80
2010,03,23,01,23,6.80
2010,03,23,01,24,6.80
2010,03,23,01,25,6.80
2010,03,23,01,26,6.80
2010,03,23,01,27,6.70
2010,03,23,01,28,6.70
2010,03,23,01,29,6.70
2010,03,23,01,30,6.70
2010,03,23,01,31,6.70
2010,03,23,01,32,6.70
2010,03,23,01,33,6.70
2010,03,23,01,34,6.60
2010,03,23,01,35,6.60
2010,03,23,01,36,6.60
2010,03,23,01,37,6.60
2010,03,23,01,38,6.60
2010,03,23,01,39,6.60
2010,03,23,01,40,6.60
2010,03,23,01,41,6.60
2010,03,23,01,42,6.60
2010,03,23,01,43,6.60
2010,03,23,01,44,6.60
2010,03,23,01,45,6.60
2010,03,23,01,46,6.60
2010,03,23,01,47,6.60
2010,03,23,01,48,6.60
2010,03,23,01,49,6.60
2010,03,23,01,50,6.60
2010,03,23,01,51,6.60
2010,03,23,01,52,6.60
2010,03,23,01,53,6.60
2010,03,23,01,54,6.60
2010,03,23,01,55,6.60
2010,03,23,01,56,6.60
2010,03,23,01,57,6.60
2010,03,23,01,58,6.60
2010,03,23,01,59,6.60
2010,03,23,02,00,6.60
2010,03,23,02,01,6.60
2010,03,23,02,02,6.60
2010,03,23,02,03,6.60
2010,03,23,02,04,6.60
2010,03,23,02,05,6.60
2010,03,23,02,06,6.60
2010,03,23,02,07,6.50
2010,03,23,02,08,6.50
2010,03,23,02,09,6.50
2010,03,23,02,10,6.50
2010,03,23,02,11,6.40
2010,03,23,02,12,6.40
2010,03,23,02,13,6.40
2010,03,23,02,14,6.40
2010,03,23,02,15,6.40
2010,03,23,02,16,6.40
2010,03,23,02,17,6.40
2010,03,23,02,18,6.40
2010,03,23,02,19,6.40
2010,03,23,02,20,6.40
2010,03,23,02,21,6.40
2010,03,23,02,22,6.40
2010,03,23,02,23,6.40
2010,03,23,02,24,6.40
2010,03,23,02,25,6.40
2010,03,23,02,26,6.40
2010,03,23,02,27,6.40
2010,03,23,02,28,6.40
2010,03,23,02,29,6.40
2010,03,23,02,30,6.40
2010,03,23,02,31,6.40
2010,03,23,02,32,6.40
2010,03,23,02,33,6.40
2010,03,23,02,34,6.40
2010,03,23,02,35,6.40
2010,03,23,02,36,6.40
2010,03,23,02,37,6.40
2010,03,23,02,38,6.40
2010,03,23,02,39,6.40
2010,03,23,02,40,6.30
2010,03,23,02,41,6.30
2010,03,23,02,42,6.30
2010,03,23,02,43,6.30
2010,03,23,02,44,6.30
2010,03,23,02,45,6.30
2010,03,23,02,46,6.30
2010,03,23,02,47,6.20
2010,03,23,02,48,6.20
2010,03,23,02,49,6.20
2010,03,23,02,50,6.20
2010,03,23,02,51,6.20
2010,03,23,02,52,6.20
2010,03,23,02,53,6.20
2010,03,23,02,54,6.20
2010,03,23,02,55,6.10
2010,03,23,02,56,6.20
2010,03,23,02,57,6.20
2010,03,23,02,58,6.10
2010,03,23,02,59,6.10
2010,03,23,03,00,6.10
2010,03,23,03,01,6.10
2010,03,23,03,02,6.10
2010,03,23,03,03,6.10
2010,03,23,03,04,6.10
2010,03,23,03,05,6.10
2010,03,23,03,06,6.00
2010,03,23,03,07,6.00
2010,03,23,03,08,6.00
2010,03,23,03,09,6.00
2010,03,23,03,10,6.00
2010,03,23,03,11,5.90
2010,03,23,03,12,5.90
2010,03,23,03,13,5.90
2010,03,23,03,14,5.90
2010,03,23,03,15,6.00
2010,03,23,03,16,6.00
2010,03,23,03,17,6.00
2010,03,23,03,18,6.10
2010,03,23,03,19,6.10
2010,03,23,03,20,6.10
2010,03,23,03,21,6.10
2010,03,23,03,22,6.10
2010,03,23,03,23,6.10
2010,03,23,03,24,6.10
2010,03,23,03,25,6.10
2010,03,23,03,26,6.20
2010,03,23,03,27,6.20
2010,03,23,03,28,6.20
2010,03,23,03,29,6.20
2010,03,23,03,30,6.20
2010,03,23,03,31,6.20
2010,03,23,03,32,6.20
2010,03,23,03,33,6.10
2010,03,23,03,34,6.10
2010,03,23,03,35,6.10
2010,03,23,03,36,6.10
2010,03,23,03,37,6.10
2010,03,23,03,38,6.10
2010,03,23,03,39,6.10
2010,03,23,03,40,6.00
2010,03,23,03,41,6.00
2010,03,23,03,42,5.90
2010,03,23,03,43,5.90
2010,03,23,03,44,5.90
2010,03,23,03,45,5.80
2010,03,23,03,46,5.80
2010,03,23,03,47,5.80
2010,03,23,03,48,5.70
2010,03,23,03,49,5.70
2010,03,23,03,50,5.70
2010,03,23,03,51,5.70
2010,03,23,03,52,5.70
2010,03,23,03,53,5.70
2010,03,23,03,54,5.60
2010,03,23,03,55,5.60
2010,03,23,03,56,5.60
2010,03,23,03,57,5.60
2010,03,23,03,58,5.60
2010,03,23,03,59,5.70
2010,03,23,04,00,5.70
2010,03,23,04,01,5.70
2010,03,23,04,02,5.70
2010,03,23,04,03,5.80
2010,03,23,04,04,5.80
2010,03,23,04,05,5.90
2010,03,23,04,06,5.90
2010,03,23,04,07,5.90
2010,03,23,04,08,5.90
2010,03,23,04,09,5.90
2010,03,23,04,10,5.90
2010,03,23,04,11,5.90
2010,03,23,04,12,5.90
2010,03,23,04,13,5.90
2010,03,23,04,14,5.90
2010,03,23,04,15,5.90
2010,03,23,04,16,6.00
2010,03,23,04,17,6.00
2010,03,23,04,18,6.00
2010,03,23,04,19,6.00
2010,03,23,04,20,6.00
2010,03,23,04,21,6.00
2010,03,23,04,22,6.00
2010,03,23,04,23,6.00
2010,03,23,04,24,6.00
2010,03,23,04,25,5.90
2010,03,23,04,26,5.90
2010,03,23,04,27,5.90
2010,03,23,04,28,5.90
2010,03,23,04,29,5.90
2010,03,23,04,30,5.90
2010,03,23,04,31,5.90
2010,03,23,04,32,5.90
2010,03,23,04,33,5.90
2010,03,23,04,34,5.90
2010,03,23,04,35,5.90
2010,03,23,04,36,5.90
2010,03,23,04,37,5.90
2010,03,23,04,38,5.90
2010,03,23,04,39,5.80
2010,03,23,04,40,5.80
2010,03,23,04,41,5.80
2010,03,23,04,42,5.80
2010,03,23,04,43,5.80
2010,03,23,04,44,5.80
2010,03,23,04,45,5.80
2010,03,23,04,46,5.80
2010,03,23,04,47,5.80
2010,03,23,04,48,5.70
2010,03,23,04,49,5.70
2010,03,23,04,50,5.70
2010,03,23,04,51,5.70
2010,03,23,04,52,5.70
2010,03,23,04,53,5.70
2010,03,23,04,54,5.70
2010,03,23,04,55,5.70
2010,03,23,04,56,5.70
2010,03,23,04,57,5.70
2010,03,23,04,58,5.70
2010,03,23,04,59,5.70
2010,03,23,05,00,5.60
2010,03,23,05,01,5.60
2010,03,23,05,02,5.60
2010,03,23,05,03,5.70
2010,03,23,05,04,5.80
2010,03,23,05,05,5.80
2010,03,23,05,06,5.90
2010,03,23,05,07,6.00
2010,03,23,05,08,6.10
2010,03,23,05,09,6.10
2010,03,23,05,10,6.10
2010,03,23,05,11,6.10
2010,03,23,05,12,6.00
2010,03,23,05,13,5.90
2010,03,23,05,14,5.90
2010,03,23,05,15,5.80
2010,03,23,05,16,5.70
2010,03,23,05,17,5.70
2010,03,23,05,18,5.60
2010,03,23,05,19,5.60
2010,03,23,05,20,5.50
2010,03,23,05,21,5.60
2010,03,23,05,22,5.60
2010,03,23,05,23,5.60
2010,03,23,05,24,5.60
2010,03,23,05,25,5.60
2010,03,23,05,26,5.60
2010,03,23,05,27,5.60
2010,03,23,05,28,5.60
2010,03,23,05,29,5.60
2010,03,23,05,30,5.50
2010,03,23,05,31,5.50
2010,03,23,05,32,5.40
2010,03,23,05,33,5.30
2010,03,23,05,34,5.30
2010,03,23,05,35,5.30
2010,03,23,05,36,5.30
2010,03,23,05,37,5.30
2010,03,23,05,38,5.20
2010,03,23,05,39,5.20
2010,03,23,05,40,5.30
2010,03,23,05,41,5.30
2010,03,23,05,42,5.30
2010,03,23,05,43,5.40
2010,03,23,05,44,5.50
2010,03,23,05,45,5.60
2010,03,23,05,46,5.60
2010,03,23,05,47,5.60
2010,03,23,05,48,5.70
2010,03,23,05,49,5.70
2010,03,23,05,50,5.70
2010,03,23,05,51,5.70
2010,03,23,05,52,5.70
2010,03,23,05,53,5.60
2010,03,23,05,54,5.60
2010,03,23,05,55,5.60
2010,03,23,05,56,5.50
2010,03,23,05,57,5.40
2010,03,23,05,58,5.30
2010,03,23,05,59,5.20
2010,03,23,06,00,5.10
2010,03,23,06,01,5.10
2010,03,23,06,02,5.00
2010,03,23,06,03,5.00
2010,03,23,06,04,4.90
2010,03,23,06,05,4.90
2010,03,23,06,06,4.90
2010,03,23,06,07,4.90
2010,03,23,06,08,4.90
2010,03,23,06,09,4.90
2010,03,23,06,10,4.90
2010,03,23,06,11,4.90
2010,03,23,06,12,4.90
2010,03,23,06,13,4.80
2010,03,23,06,14,4.80
2010,03,23,06,15,4.80
2010,03,23,06,16,4.80
2010,03,23,06,17,4.80
2010,03,23,06,18,4.80
2010,03,23,06,19,4.80
2010,03,23,06,20,4.70
2010,03,23,06,21,4.70
2010,03,23,06,22,4.70
2010,03,23,06,23,4.60
2010,03,23,06,24,4.60
2010,03,23,06,25,4.60
2010,03,23,06,26,4.60
2010,03,23,06,27,4.60
2010,03,23,06,28,4.50
2010,03,23,06,29,4.50
2010,03,23,06,30,4.50
2010,03,23,06,31,4.50
2010,03,23,06,32,4.40
2010,03,23,06,33,4.40
2010,03,23,06,34,4.40
2010,03,23,06,35,4.40
2010,03,23,06,36,4.40
2010,03,23,06,37,4.40
2010,03,23,06,38,4.40
2010,03,23,06,39,4.50
2010,03,23,06,40,4.50
2010,03,23,06,41,4.60
2010,03,23,06,42,4.60
2010,03,23,06,43,4.60
2010,03,23,06,44,4.70
2010,03,23,06,45,4.70
2010,03,23,06,46,4.70
2010,03,23,06,47,4.70
2010,03,23,06,48,4.70
2010,03,23,06,49,4.80
2010,03,23,06,50,4.70
2010,03,23,06,51,4.70
2010,03,23,06,52,4.70
2010,03,23,06,53,4.70
2010,03,23,06,54,4.70
2010,03,23,06,55,4.70
2010,03,23,06,56,4.70
2010,03,23,06,57,4.70
2010,03,23,06,58,4.70
2010,03,23,06,59,4.70
2010,03,23,07,00,4.70
2010,03,23,07,01,4.70
2010,03,23,07,02,4.70
2010,03,23,07,03,4.70
2010,03,23,07,04,4.80
2010,03,23,07,05,4.80
2010,03,23,07,06,4.80
2010,03,23,07,07,4.90
2010,03,23,07,08,5.00
2010,03,23,07,09,5.00
2010,03,23,07,10,5.10
2010,03,23,07,11,5.20
2010,03,23,07,12,5.20
2010,03,23,07,13,5.20
2010,03,23,07,14,5.20
2010,03,23,07,15,5.20
2010,03,23,07,16,5.20
2010,03,23,07,17,5.20
2010,03,23,07,18,5.10
2010,03,23,07,19,5.10
2010,03,23,07,20,5.10
2010,03,23,07,21,5.00
2010,03,23,07,22,5.00
2010,03,23,07,23,5.00
2010,03,23,07,24,5.00
2010,03,23,07,25,5.00
2010,03,23,07,26,5.00
2010,03,23,07,27,5.00
2010,03,23,07,28,4.90
2010,03,23,07,29,4.90
2010,03,23,07,30,4.90
2010,03,23,07,31,4.90
2010,03,23,07,32,4.90
2010,03,23,07,33,4.90
2010,03,23,07,34,4.90
2010,03,23,07,35,4.90
2010,03,23,07,36,4.90
2010,03,23,07,37,4.90
2010,03,23,07,38,4.90
2010,03,23,07,39,4.90
2010,03,23,07,40,4.90
2010,03,23,07,41,4.80
2010,03,23,07,42,4.80
2010,03,23,07,43,4.80
2010,03,23,07,44,4.80
2010,03,23,07,45,4.80
2010,03,23,07,46,4.80
2010,03,23,07,47,4.70
2010,03,23,07,48,4.70
2010,03,23,07,49,4.70
2010,03,23,07,50,4.70
2010,03,23,07,51,4.70
2010,03,23,07,52,4.70
2010,03,23,07,53,4.60
2010,03,23,07,54,4.60
2010,03,23,07,55,4.60
2010,03,23,07,56,4.60
2010,03,23,07,57,4.60
2010,03,23,07,58,4.70
2010,03,23,07,59,4.70
2010,03,23,08,00,4.80
2010,03,23,08,01,4.80
2010,03,23,08,02,4.90
2010,03,23,08,03,4.90
2010,03,23,08,04,4.90
2010,03,23,08,05,5.00
2010,03,23,08,06,5.00
2010,03,23,08,07,5.10
2010,03,23,08,08,5.10
2010,03,23,08,09,5.10
2010,03,23,08,10,5.20
2010,03,23,08,11,5.20
2010,03,23,08,12,5.20
2010,03,23,08,13,5.20
2010,03,23,08,14,5.20
2010,03,23,08,15,5.20
2010,03,23,08,16,5.30
2010,03,23,08,17,5.30
2010,03,23,08,18,5.30
2010,03,23,08,19,5.30
2010,03,23,08,20,5.30
2010,03,23,08,21,5.30
2010,03,23,08,22,5.30
2010,03,23,08,23,5.30
2010,03,23,08,24,5.30
2010,03,23,08,25,5.40
2010,03,23,08,26,5.40
2010,03,23,08,27,5.40
2010,03,23,08,28,5.40
2010,03,23,08,29,5.40
2010,03,23,08,30,5.50
2010,03,23,08,31,5.50
2010,03,23,08,32,5.50
2010,03,23,08,33,5.60
2010,03,23,08,34,5.60
2010,03,23,08,35,5.60
2010,03,23,08,36,5.70
2010,03,23,08,37,5.80
2010,03,23,08,38,5.80
2010,03,23,08,39,5.80
2010,03,23,08,40,5.80
2010,03,23,08,41,5.90
2010,03,23,08,42,5.90
2010,03,23,08,43,5.90
2010,03,23,08,44,6.00
2010,03,23,08,45,6.00
2010,03,23,08,46,6.10
2010,03,23,08,47,6.10
2010,03,23,08,48,6.20
2010,03,23,08,49,6.20
2010,03,23,08,50,6.30
2010,03,23,08,51,6.30
2010,03,23,08,52,6.40
2010,03,23,08,53,6.40
2010,03,23,08,54,6.40
2010,03,23,08,55,6.50
2010,03,23,08,56,6.60
2010,03,23,08,57,6.60
2010,03,23,08,58,6.70
2010,03,23,08,59,6.70
2010,03,23,09,00,6.80
2010,03,23,09,01,6.90
2010,03,23,09,02,7.00
2010,03,23,09,03,7.10
2010,03,23,09,04,7.20
2010,03,23,09,05,7.30
2010,03,23,09,06,7.40
2010,03,23,09,07,7.40
2010,03,23,09,08,7.50
2010,03,23,09,09,7.60
2010,03,23,09,10,7.70
2010,03,23,09,11,7.80
2010,03,23,09,12,7.80
2010,03,23,09,13,7.90
2010,03,23,09,14,8.00
2010,03,23,09,15,8.10
2010,03,23,09,16,8.10
2010,03,23,09,17,8.20
2010,03,23,09,18,8.30
2010,03,23,09,19,8.40
2010,03,23,09,20,8.40
2010,03,23,09,21,8.40
2010,03,23,09,22,8.50
2010,03,23,09,23,8.50
2010,03,23,09,24,8.60
2010,03,23,09,25,8.60
2010,03,23,09,26,8.60
2010,03,23,09,27,8.60
2010,03,23,09,28,8.60
2010,03,23,09,29,8.70
2010,03,23,09,30,8.70
2010,03,23,09,31,8.70
2010,03,23,09,32,8.80
2010,03,23,09,33,8.80
2010,03,23,09,34,8.80
2010,03,23,09,35,8.80
2010,03,23,09,36,8.80
2010,03,23,09,37,8.80
2010,03,23,09,38,8.90
2010,03,23,09,39,8.90
2010,03,23,09,40,9.00
2010,03,23,09,41,9.00
2010,03,23,09,42,9.10
2010,03,23,09,43,9.10
2010,03,23,09,44,9.20
2010,03,23,09,45,9.20
2010,03,23,09,46,9.20
2010,03,23,09,47,9.10
2010,03,23,09,48,9.10
2010,03,23,09,49,9.10
2010,03,23,09,50,9.10
2010,03,23,09,51,9.10
2010,03,23,09,52,9.10
2010,03,23,09,53,9.10
2010,03,23,09,54,9.10
2010,03,23,09,55,9.10
2010,03,23,09,56,9.20
2010,03,23,09,57,9.20
2010,03,23,09,58,9.30
2010,03,23,09,59,9.40
2010,03,23,10,00,9.40
2010,03,23,10,01,9.50
2010,03,23,10,02,9.60
2010,03,23,10,03,9.60
2010,03,23,10,04,9.70
2010,03,23,10,05,9.70
2010,03,23,10,06,9.70
2010,03,23,10,07,9.70
2010,03,23,10,08,9.70
2010,03,23,10,09,9.70
2010,03,23,10,10,9.60
2010,03,23,10,11,9.70
2010,03,23,10,12,9.70
2010,03,23,10,13,9.70
2010,03,23,10,14,9.70
2010,03,23,10,15,9.70
2010,03,23,10,16,9.70
2010,03,23,10,17,9.70
2010,03,23,10,18,9.70
2010,03,23,10,19,9.70
2010,03,23,10,20,9.70
2010,03,23,10,21,9.70
2010,03,23,10,22,9.70
2010,03,23,10,23,9.60
2010,03,23,10,24,9.60
2010,03,23,10,25,9.60
2010,03,23,10,26,9.60
2010,03,23,10,27,9.60
2010,03,23,10,28,9.50
2010,03,23,10,29,9.50
2010,03,23,10,30,9.50
2010,03,23,10,31,9.40
2010,03,23,10,32,9.40
2010,03,23,10,33,9.40
2010,03,23,10,34,9.40
2010,03,23,10,35,9.40
2010,03,23,10,36,9.40
2010,03,23,10,37,9.40
2010,03,23,10,38,9.40
2010,03,23,10,39,9.30
2010,03,23,10,40,9.30
2010,03,23,10,41,9.30
2010,03,23,10,42,9.30
2010,03,23,10,43,9.30
2010,03,23,10,44,9.30
2010,03,23,10,45,9.30
2010,03,23,10,46,9.30
2010,03,23,10,47,9.40
2010,03,23,10,48,9.40
2010,03,23,10,49,9.50
2010,03,23,10,50,9.50
2010,03,23,10,51,9.60
2010,03,23,10,52,9.70
2010,03,23,10,53,9.80
2010,03,23,10,54,9.80
2010,03,23,10,55,9.90
2010,03,23,10,56,9.90
2010,03,23,10,57,10.00
2010,03,23,10,58,10.10
2010,03,23,10,59,10.20
2010,03,23,11,00,10.30
2010,03,23,11,01,10.30
2010,03,23,11,02,10.40
2010,03,23,11,03,10.40
2010,03,23,11,04,10.40
2010,03,23,11,05,10.50
2010,03,23,11,06,10.50
2010,03,23,11,07,10.60
2010,03,23,11,08,10.60
2010,03,23,11,09,10.60
2010,03,23,11,10,10.70
2010,03,23,11,11,10.70
2010,03,23,11,12,10.80
2010,03,23,11,13,10.80
2010,03,23,11,14,10.80
2010,03,23,11,15,10.80
2010,03,23,11,16,10.80
2010,03,23,11,17,10.70
2010,03,23,11,18,10.60
2010,03,23,11,19,10.50
2010,03,23,11,20,10.40
2010,03,23,11,21,10.30
2010,03,23,11,22,10.20
2010,03,23,11,23,10.10
2010,03,23,11,24,10.00
2010,03,23,11,25,10.00
2010,03,23,11,26,9.90
2010,03,23,11,27,9.90
2010,03,23,11,28,9.90
2010,03,23,11,29,9.90
2010,03,23,11,30,9.90
2010,03,23,11,31,9.90
2010,03,23,11,32,9.90
2010,03,23,11,33,9.90
2010,03,23,11,34,9.90
2010,03,23,11,35,9.90
2010,03,23,11,36,9.90
2010,03,23,11,37,9.90
2010,03,23,11,38,10.00
2010,03,23,11,39,10.00
2010,03,23,11,40,10.00
2010,03,23,11,41,10.10
2010,03,23,11,42,10.10
2010,03,23,11,43,10.10
2010,03,23,11,44,10.10
2010,03,23,11,45,10.10
2010,03,23,11,46,10.10
2010,03,23,11,47,10.10
2010,03,23,11,48,10.20
2010,03,23,11,49,10.20
2010,03,23,11,50,10.20
2010,03,23,11,51,10.20
2010,03,23,11,52,10.20
2010,03,23,11,53,10.20
2010,03,23,11,54,10.20
2010,03,23,11,55,10.20
2010,03,23,11,56,10.20
2010,03,23,11,57,10.20
2010,03,23,11,58,10.20
2010,03,23,11,59,10.10
2010,03,23,12,00,10.10
2010,03,23,12,01,10.20
2010,03,23,12,02,10.20
2010,03,23,12,03,10.30
2010,03,23,12,04,10.40
2010,03,23,12,05,10.40
2010,03,23,12,06,10.50
2010,03,23,12,07,10.50
2010,03,23,12,08,10.60
2010,03,23,12,09,10.60
2010,03,23,12,10,10.50
2010,03,23,12,11,10.50
2010,03,23,12,12,10.40
2010,03,23,12,13,10.40
2010,03,23,12,14,10.40
2010,03,23,12,15,10.30
2010,03,23,12,16,10.30
2010,03,23,12,17,10.40
2010,03,23,12,18,10.40
2010,03,23,12,19,10.50
2010,03,23,12,20,10.60
2010,03,23,12,21,10.70
2010,03,23,12,22,10.70
2010,03,23,12,23,10.70
2010,03,23,12,24,10.80
2010,03,23,12,25,10.80
2010,03,23,12,26,10.80
2010,03,23,12,27,10.80
2010,03,23,12,28,10.80
2010,03,23,12,29,10.80
2010,03,23,12,30,10.90
2010,03,23,12,31,10.90
2010,03,23,12,32,10.90
2010,03,23,12,33,10.90
2010,03,23,12,34,10.90
2010,03,23,12,35,11.00
2010,03,23,12,36,11.10
2010,03,23,12,37,11.20
2010,03,23,12,38,11.20
2010,03,23,12,39,11.30
2010,03,23,12,40,11.40
2010,03,23,12,41,11.40
2010,03,23,12,42,11.40
2010,03,23,12,43,11.40
2010,03,23,12,44,11.40
2010,03,23,12,45,11.40
2010,03,23,12,46,11.40
2010,03,23,12,47,11.40
2010,03,23,12,48,11.30
2010,03,23,12,49,11.30
2010,03,23,12,50,11.30
2010,03,23,12,51,11.30
2010,03,23,12,52,11.30
2010,03,23,12,53,11.30
2010,03,23,12,54,11.30
2010,03,23,12,55,11.30
2010,03,23,12,56,11.40
2010,03,23,12,57,11.40
2010,03,23,12,58,11.40
2010,03,23,12,59,11.50
2010,03,23,13,00,11.50
2010,03,23,13,01,11.50
2010,03,23,13,02,11.50
2010,03,23,13,03,11.50
2010,03,23,13,04,11.40
2010,03,23,13,05,11.40
2010,03,23,13,06,11.40
2010,03,23,13,07,11.40
2010,03,23,13,08,11.40
2010,03,23,13,09,11.40
2010,03,23,13,10,11.40
2010,03,23,13,11,11.40
2010,03,23,13,12,11.40
2010,03,23,13,13,11.50
2010,03,23,13,14,11.50
2010,03,23,13,15,11.60
2010,03,23,13,16,11.60
2010,03,23,13,17,11.50
2010,03,23,13,18,11.50
2010,03,23,13,19,11.50
2010,03,23,13,20,11.30
2010,03,23,13,21,10.90
2010,03,23,13,22,10.60
2010,03,23,13,23,10.40
2010,03,23,13,24,10.40
2010,03,23,13,25,10.30
2010,03,23,13,26,10.30
2010,03,23,13,27,10.30
2010,03,23,13,28,10.30
2010,03,23,13,29,10.40
2010,03,23,13,30,10.40
2010,03,23,13,31,10.50
2010,03,23,13,32,10.50
2010,03,23,13,33,10.30
2010,03,23,13,34,10.20
2010,03,23,13,35,10.20
2010,03,23,13,36,10.20
2010,03,23,13,37,10.20
2010,03,23,13,38,10.10
2010,03,23,13,39,10.10
2010,03,23,13,40,10.00
2010,03,23,13,41,10.00
2010,03,23,13,42,10.00
2010,03,23,13,43,9.80
2010,03,23,13,44,9.70
2010,03,23,13,45,9.60
2010,03,23,13,46,9.60
2010,03,23,13,47,9.60
2010,03,23,13,48,9.60
2010,03,23,13,49,9.70
2010,03,23,13,50,9.80
2010,03,23,13,51,9.90
2010,03,23,13,52,10.00
2010,03,23,13,53,10.10
2010,03,23,13,54,10.10
2010,03,23,13,55,10.20
2010,03,23,13,56,10.20
2010,03,23,13,57,10.20
2010,03,23,13,58,10.20
2010,03,23,13,59,10.30
2010,03,23,14,00,10.30
2010,03,23,14,01,10.40
2010,03,23,14,02,10.50
2010,03,23,14,03,10.50
2010,03,23,14,04,10.40
2010,03,23,14,05,10.40
2010,03,23,14,06,10.30
2010,03,23,14,07,10.30
2010,03,23,14,08,10.30
2010,03,23,14,09,10.20
2010,03,23,14,10,10.20
2010,03,23,14,11,10.20
2010,03,23,14,12,10.30
2010,03,23,14,13,10.30
2010,03,23,14,14,10.40
2010,03,23,14,15,10.40
2010,03,23,14,16,10.50
2010,03,23,14,17,10.60
2010,03,23,14,18,10.60
2010,03,23,14,19,10.50
2010,03,23,14,20,10.50
2010,03,23,14,21,10.50
2010,03,23,14,22,10.60
2010,03,23,14,23,10.70
2010,03,23,14,24,10.60
2010,03,23,14,25,10.40
2010,03,23,14,26,10.40
2010,03,23,14,27,10.50
2010,03,23,14,28,10.40
2010,03,23,14,29,10.40
2010,03,23,14,30,10.40
2010,03,23,14,31,10.40
2010,03,23,14,32,10.30
2010,03,23,14,33,10.30
2010,03,23,14,34,10.20
2010,03,23,14,35,10.10
2010,03,23,14,36,10.10
2010,03,23,14,37,10.20
2010,03,23,14,38,10.20
2010,03,23,14,39,10.30
2010,03,23,14,40,10.40
2010,03,23,14,41,10.50
2010,03,23,14,42,10.50
2010,03,23,14,43,10.40
2010,03,23,14,44,10.30
2010,03,23,14,45,10.30
2010,03,23,14,46,10.20
2010,03,23,14,47,10.20
2010,03,23,14,48,10.10
2010,03,23,14,49,10.00
2010,03,23,14,50,9.90
2010,03,23,14,51,9.90
2010,03,23,14,52,9.90
2010,03,23,14,53,10.00
2010,03,23,14,54,10.10
2010,03,23,14,55,10.10
2010,03,23,14,56,10.10
2010,03,23,14,57,10.10
2010,03,23,14,58,10.10
2010,03,23,14,59,10.10
2010,03,23,15,00,10.10
2010,03,23,15,01,10.20
2010,03,23,15,02,10.10
2010,03,23,15,03,10.10
2010,03,23,15,04,10.20
2010,03,23,15,05,10.20
2010,03,23,15,06,10.30
2010,03,23,15,07,10.30
2010,03,23,15,08,10.40
2010,03,23,15,09,10.40
2010,03,23,15,10,10.40
2010,03,23,15,11,10.50
2010,03,23,15,12,10.50
2010,03,23,15,13,10.60
2010,03,23,15,14,10.60
2010,03,23,15,15,10.60
2010,03,23,15,16,10.70
2010,03,23,15,17,10.70
2010,03,23,15,18,10.60
2010,03,23,15,19,10.60
2010,03,23,15,20,10.60
2010,03,23,15,21,10.60
2010,03,23,15,22,10.60
2010,03,23,15,23,10.70
2010,03,23,15,24,10.70
2010,03,23,15,25,10.70
2010,03,23,15,26,10.70
2010,03,23,15,27,10.70
2010,03,23,15,28,10.70
2010,03,23,15,29,10.60
2010,03,23,15,30,10.60
2010,03,23,15,31,10.60
2010,03,23,15,32,10.60
2010,03,23,15,33,10.70
2010,03,23,15,34,10.70
2010,03,23,15,35,10.70
2010,03,23,15,36,10.80
2010,03,23,15,37,10.80
2010,03,23,15,38,10.80
2010,03,23,15,39,10.80
2010,03,23,15,40,10.90
2010,03,23,15,41,10.90
2010,03,23,15,42,11.00
2010,03,23,15,43,11.10
2010,03,23,15,44,11.10
2010,03,23,15,45,11.20
2010,03,23,15,46,11.20
2010,03,23,15,47,11.20
2010,03,23,15,48,11.20
2010,03,23,15,49,11.20
2010,03,23,15,50,11.20
2010,03,23,15,51,11.20
2010,03,23,15,52,11.20
2010,03,23,15,53,11.20
2010,03,23,15,54,11.20
2010,03,23,15,55,11.30
2010,03,23,15,56,11.30
2010,03,23,15,57,11.40
2010,03,23,15,58,11.50
2010,03,23,15,59,11.60
2010,03,23,16,00,11.70
2010,03,23,16,01,11.70
2010,03,23,16,02,11.70
2010,03,23,16,03,11.70
2010,03,23,16,04,11.70
2010,03,23,16,05,11.70
2010,03,23,16,06,11.70
2010,03,23,16,07,11.70
2010,03,23,16,08,11.70
2010,03,23,16,09,11.70
2010,03,23,16,10,11.70
2010,03,23,16,11,11.70
2010,03,23,16,12,11.70
2010,03,23,16,13,11.70
2010,03,23,16,14,11.70
2010,03,23,16,15,11.80
2010,03,23,16,16,11.80
2010,03,23,16,17,11.80
2010,03,23,16,18,11.80
2010,03,23,16,19,11.80
2010,03,23,16,20,11.80
2010,03,23,16,21,11.80
2010,03,23,16,22,11.80
2010,03,23,16,23,11.80
2010,03,23,16,24,11.80
2010,03,23,16,25,11.90
2010,03,23,16,26,11.90
2010,03,23,16,27,11.90
2010,03,23,16,28,11.90
2010,03,23,16,29,11.90
2010,03,23,16,30,11.90
2010,03,23,16,31,11.90
2010,03,23,16,32,11.90
2010,03,23,16,33,11.90
2010,03,23,16,34,12.00
2010,03,23,16,35,12.00
2010,03,23,16,36,12.10
2010,03,23,16,37,12.10
2010,03,23,16,38,12.10
2010,03,23,16,39,12.20
2010,03,23,16,40,12.20
2010,03,23,16,41,12.20
2010,03,23,16,42,12.20
2010,03,23,16,43,12.20
2010,03,23,16,44,12.10
2010,03,23,16,45,12.10
2010,03,23,16,46,12.00
2010,03,23,16,47,12.00
2010,03,23,16,48,11.90
2010,03,23,16,49,11.90
2010,03,23,16,50,11.80
2010,03,23,16,51,11.80
2010,03,23,16,52,11.70
2010,03,23,16,53,11.70
2010,03,23,16,54,11.80
2010,03,23,16,55,11.80
2010,03,23,16,56,11.90
2010,03,23,16,57,11.90
2010,03,23,16,58,12.00
2010,03,23,16,59,12.10
2010,03,23,17,00,12.20
2010,03,23,17,01,12.30
2010,03,23,17,02,12.30
2010,03,23,17,03,12.30
2010,03,23,17,04,12.30
2010,03,23,17,05,12.30
2010,03,23,17,06,12.30
2010,03,23,17,07,12.30
2010,03,23,17,08,12.20
2010,03,23,17,09,12.20
2010,03,23,17,10,12.20
2010,03,23,17,11,12.10
2010,03,23,17,12,12.10
2010,03,23,17,13,12.00
2010,03,23,17,14,12.00
2010,03,23,17,15,11.90
2010,03,23,17,16,11.90
2010,03,23,17,17,11.90
2010,03,23,17,18,11.80
2010,03,23,17,19,11.80
2010,03,23,17,20,11.80
2010,03,23,17,21,11.80
2010,03,23,17,22,11.70
2010,03,23,17,23,11.70
2010,03,23,17,24,11.70
2010,03,23,17,25,11.70
2010,03,23,17,26,11.70
2010,03,23,17,27,11.70
2010,03,23,17,28,11.70
2010,03,23,17,29,11.70
2010,03,23,17,30,11.80
2010,03,23,17,31,11.80
2010,03,23,17,32,11.80
2010,03,23,17,33,11.80
2010,03,23,17,34,11.90
2010,03,23,17,35,11.90
2010,03,23,17,36,11.90
2010,03,23,17,37,11.90
2010,03,23,17,38,11.80
2010,03,23,17,39,11.80
2010,03,23,17,40,11.80
2010,03,23,17,41,11.80
2010,03,23,17,42,11.80
2010,03,23,17,43,11.80
2010,03,23,17,44,11.70
2010,03,23,17,45,11.60
2010,03,23,17,46,11.60
2010,03,23,17,47,11.50
2010,03,23,17,48,11.40
2010,03,23,17,49,11.30